When you browse on this site, cookies collect data to enhance your experience and personalize the content and advertising you see.
Visit our Privacy Policy to learn more. By continuing to use the site, you agree to this use of cookies and data.
  • In Slovakia
  • List of Countries
  • For 7 days
  • Water Temperature
  • Weather Map
  • Weather Widgets
  • user-avatar
    Login

    Hourly Weather Kresy

    Today, 28 May, Thursday

    Time Temperature Precipitation Wind Pressure Humidity
    00:00 +9°C° 0 mm 2 mps 757 mmHg 92%
    01:00 +8°C° 0 mm 2 mps 757 mmHg 91%
    02:00 +8°C° 0 mm 2 mps 757 mmHg 90%
    03:00 +8°C° 0 mm 2 mps 757 mmHg 90%
    04:00 +8°C° 0 mm 2 mps 757 mmHg 89%
    05:00 +8°C° 0 mm 2 mps 756 mmHg 89%
    06:00 +10°C° 0 mm 2 mps 756 mmHg 83%
    07:00 +13°C° 0 mm 2 mps 756 mmHg 78%
    08:00 +15°C° 0 mm 2 mps 756 mmHg 73%
    09:00 +16°C° 0 mm 3 mps 756 mmHg 70%
    10:00 +17°C° 0 mm 3 mps 756 mmHg 67%
    11:00 +18°C° 0 mm 3 mps 756 mmHg 64%
    12:00 +18°C° 0 mm 3 mps 756 mmHg 61%
    13:00 +19°C° 0 mm 3 mps 756 mmHg 58%
    14:00 +19°C° 0 mm 3 mps 755 mmHg 56%
    15:00 +19°C° 0.1 mm 3 mps 755 mmHg 59%
    16:00 +18°C° 0.1 mm 4 mps 755 mmHg 63%
    17:00 +18°C° 0.1 mm 4 mps 754 mmHg 67%
    18:00 +17°C° 0.2 mm 4 mps 754 mmHg 73%
    19:00 +15°C° 0.2 mm 4 mps 755 mmHg 79%
    20:00 +13°C° 0.2 mm 4 mps 755 mmHg 86%
    21:00 +12°C° 0 mm 5 mps 755 mmHg 85%
    22:00 +10°C° 0 mm 5 mps 755 mmHg 84%
    23:00 +9°C° 0 mm 5 mps 755 mmHg 83%

    Tomorrow, 29 May, Friday

    Time Temperature Precipitation Wind Pressure Humidity
    00:00 +8°C° 0 mm 5 mps 755 mmHg 83%
    01:00 +7°C° 0 mm 5 mps 755 mmHg 82%
    02:00 +7°C° 0 mm 5 mps 755 mmHg 82%
    03:00 +6°C° 0 mm 5 mps 755 mmHg 83%
    04:00 +6°C° 0 mm 5 mps 754 mmHg 83%
    05:00 +5°C° 0 mm 5 mps 754 mmHg 84%
    06:00 +7°C° 0 mm 6 mps 754 mmHg 81%
    07:00 +8°C° 0 mm 6 mps 754 mmHg 78%
    08:00 +10°C° 0 mm 6 mps 754 mmHg 76%
    09:00 +11°C° 0 mm 7 mps 754 mmHg 71%
    10:00 +14°C° 0 mm 7 mps 754 mmHg 66%
    11:00 +15°C° 0 mm 7 mps 754 mmHg 62%
    12:00 +15°C° 0.1 mm 7 mps 754 mmHg 61%
    13:00 +16°C° 0.1 mm 7 mps 754 mmHg 60%
    14:00 +16°C° 0.1 mm 8 mps 753 mmHg 59%
    15:00 +16°C° 0.1 mm 7 mps 753 mmHg 62%
    16:00 +15°C° 0.1 mm 6 mps 753 mmHg 66%
    17:00 +15°C° 0.1 mm 6 mps 753 mmHg 69%
    18:00 +14°C° 0.1 mm 6 mps 752 mmHg 72%
    19:00 +13°C° 0.1 mm 6 mps 752 mmHg 75%
    20:00 +11°C° 0.1 mm 6 mps 752 mmHg 77%
    21:00 +11°C° 0 mm 6 mps 752 mmHg 75%
    22:00 +10°C° 0 mm 6 mps 752 mmHg 73%
    23:00 +10°C° 0 mm 6 mps 752 mmHg 71%

    Day after tomorrow, 30 May, Saturday

    Time Temperature Precipitation Wind Pressure Humidity
    00:00 +10°C° 0 mm 6 mps 751 mmHg 71%
    01:00 +10°C° 0 mm 7 mps 751 mmHg 71%
    02:00 +9°C° 0 mm 7 mps 751 mmHg 71%
    03:00 +9°C° 0.1 mm 7 mps 751 mmHg 75%
    04:00 +9°C° 0.1 mm 7 mps 750 mmHg 79%
    05:00 +8°C° 0.1 mm 7 mps 750 mmHg 83%
    06:00 +9°C° 0.1 mm 7 mps 750 mmHg 82%
    07:00 +9°C° 0.1 mm 7 mps 750 mmHg 80%
    08:00 +10°C° 0.1 mm 7 mps 750 mmHg 79%
    09:00 +11°C° 0 mm 7 mps 750 mmHg 76%
    10:00 +12°C° 0 mm 7 mps 750 mmHg 74%
    11:00 +14°C° 0 mm 7 mps 750 mmHg 71%
    12:00 +14°C° 0.2 mm 7 mps 750 mmHg 76%
    13:00 +14°C° 0.2 mm 7 mps 749 mmHg 81%
    14:00 +14°C° 0.2 mm 7 mps 749 mmHg 85%
    15:00 +12°C° 1.8 mm 7 mps 749 mmHg 88%
    16:00 +13°C° 1.8 mm 6 mps 749 mmHg 92%
    17:00 +11°C° 1.8 mm 6 mps 749 mmHg 95%
    18:00 +13°C° 1.4 mm 6 mps 749 mmHg 94%
    19:00 +13°C° 1.4 mm 5 mps 749 mmHg 93%
    20:00 +13°C° 1.4 mm 5 mps 748 mmHg 92%
    21:00 +13°C° 0.3 mm 5 mps 749 mmHg 90%
    22:00 +13°C° 0.3 mm 6 mps 749 mmHg 89%
    23:00 +11°C° 0.3 mm 6 mps 749 mmHg 88%

    31 May, Sunday

    Time Temperature Precipitation Wind Pressure Humidity
    00:00 +11°C° 0 mm 6 mps 749 mmHg 85%
    01:00 +11°C° 0 mm 6 mps 749 mmHg 82%
    02:00 +11°C° 0 mm 7 mps 749 mmHg 80%
    03:00 +11°C° 0 mm 7 mps 749 mmHg 79%
    04:00 +11°C° 0 mm 7 mps 749 mmHg 79%
    05:00 +10°C° 0 mm 7 mps 749 mmHg 78%
    06:00 +11°C° 0 mm 7 mps 749 mmHg 77%
    07:00 +12°C° 0 mm 7 mps 749 mmHg 76%
    08:00 +13°C° 0 mm 8 mps 749 mmHg 75%
    09:00 +16°C° 0 mm 8 mps 750 mmHg 73%
    10:00 +17°C° 0 mm 8 mps 750 mmHg 72%
    11:00 +18°C° 0 mm 8 mps 750 mmHg 70%
    12:00 +20°C° 0 mm 8 mps 750 mmHg 69%
    13:00 +20°C° 0 mm 8 mps 750 mmHg 68%
    14:00 +21°C° 0 mm 8 mps 751 mmHg 67%
    15:00 +20°C° 0 mm 7 mps 751 mmHg 69%
    16:00 +20°C° 0 mm 6 mps 751 mmHg 70%
    17:00 +20°C° 0 mm 5 mps 751 mmHg 72%
    18:00 +19°C° 0 mm 5 mps 752 mmHg 74%
    19:00 +18°C° 0 mm 4 mps 752 mmHg 75%
    20:00 +17°C° 0 mm 4 mps 752 mmHg 77%
    21:00 +15°C° 0 mm 4 mps 753 mmHg 77%
    22:00 +14°C° 0 mm 4 mps 753 mmHg 78%
    23:00 +13°C° 0 mm 4 mps 754 mmHg 78%

    1 June, Monday

    Time Temperature Precipitation Wind Pressure Humidity
    00:00 +12°C° 0 mm 4 mps 754 mmHg 79%
    01:00 +12°C° 0 mm 4 mps 754 mmHg 80%
    02:00 +11°C° 0 mm 4 mps 754 mmHg 82%
    03:00 +11°C° 0 mm 4 mps 754 mmHg 83%
    04:00 +10°C° 0 mm 4 mps 754 mmHg 83%
    05:00 +10°C° 0 mm 4 mps 754 mmHg 84%
    06:00 +11°C° 0 mm 4 mps 755 mmHg 80%
    07:00 +13°C° 0 mm 4 mps 755 mmHg 76%
    08:00 +15°C° 0 mm 5 mps 755 mmHg 72%
    09:00 +16°C° 0 mm 5 mps 755 mmHg 67%
    10:00 +17°C° 0 mm 5 mps 755 mmHg 63%
    11:00 +19°C° 0 mm 6 mps 755 mmHg 59%
    12:00 +20°C° 0 mm 6 mps 755 mmHg 58%
    13:00 +20°C° 0 mm 6 mps 755 mmHg 57%
    14:00 +21°C° 0 mm 6 mps 755 mmHg 56%
    15:00 +21°C° 0 mm 6 mps 755 mmHg 58%
    16:00 +20°C° 0 mm 5 mps 755 mmHg 60%
    17:00 +20°C° 0 mm 5 mps 755 mmHg 63%
    18:00 +19°C° 0 mm 5 mps 755 mmHg 68%
    19:00 +18°C° 0 mm 4 mps 755 mmHg 72%
    20:00 +16°C° 0 mm 3 mps 755 mmHg 77%
    21:00 +14°C° 0 mm 3 mps 755 mmHg 81%
    22:00 +13°C° 0 mm 3 mps 755 mmHg 84%
    23:00 +12°C° 0 mm 3 mps 755 mmHg 87%

    2 June, Tuesday

    Time Temperature Precipitation Wind Pressure Humidity
    00:00 +13°C° 0 mm 2 mps 755 mmHg 89%
    01:00 +12°C° 0 mm 2 mps 755 mmHg 90%
    02:00 +12°C° 0 mm 2 mps 755 mmHg 92%
    03:00 +12°C° 0 mm 2 mps 755 mmHg 92%
    04:00 +10°C° 0 mm 2 mps 755 mmHg 93%
    05:00 +10°C° 0 mm 2 mps 755 mmHg 93%
    06:00 +12°C° 0 mm 3 mps 755 mmHg 87%
    07:00 +14°C° 0 mm 3 mps 755 mmHg 81%
    08:00 +17°C° 0 mm 3 mps 755 mmHg 75%
    09:00 +18°C° 0 mm 3 mps 755 mmHg 70%
    10:00 +19°C° 0 mm 3 mps 755 mmHg 65%
    11:00 +21°C° 0 mm 4 mps 755 mmHg 60%
    12:00 +21°C° 0 mm 4 mps 755 mmHg 59%
    13:00 +21°C° 0 mm 3 mps 755 mmHg 59%
    14:00 +22°C° 0 mm 3 mps 755 mmHg 58%
    15:00 +22°C° 0.1 mm 3 mps 754 mmHg 60%
    16:00 +22°C° 0.1 mm 3 mps 754 mmHg 62%
    17:00 +22°C° 0.1 mm 3 mps 754 mmHg 63%
    18:00 +20°C° 0.1 mm 3 mps 754 mmHg 69%
    19:00 +19°C° 0.1 mm 2 mps 753 mmHg 75%
    20:00 +18°C° 0.1 mm 2 mps 753 mmHg 81%
    21:00 +17°C° 0 mm 2 mps 753 mmHg 84%
    22:00 +15°C° 0 mm 2 mps 754 mmHg 87%
    23:00 +14°C° 0 mm 1 mps 754 mmHg 90%
    Show more